Location: Cahas Mountain Overlook
(37.0833°N, 80.1000°W)
Time: 19:59:28
(UTC-04:00)

Tiros 1 - Pass Details

Date: 17 February 2026
Orbit: 618 x 649 km, 48.4° (Epoch: 13 March)

Event Time Altitude Azimuth Distance (km) Brightness Sun altitude
Rises 12:55:54 0° 305° (NW) 2,892 10.3 40.9°
Reaches altitude 10° 12:58:39 10° 320° (NW) 1,982 9.4 40.8°
Maximum altitude 13:02:15 23° 13° (NNE) 1,329 8.5 40.7°
Drops below altitude 10° 13:05:52 10° 65° (ENE) 1,976 9.5 40.6°
Sets 13:08:35 0° 81° (E) 2,881 10.3 40.5°
